Flag for U.S.A. Weather past 2 weeks in Tulsa, Oklahoma, U.S.A.

Now
70 °F

Clear.


Feels Like: 69 °F
Forecast: 66 / 89 °F
Wind: No wind

Location: Tulsa International Airport

Current Time: Aug 2, 2014 at 1:34:16 AM

Latest Report: Aug 2, 2014 at 12:53 AM


Visibility: 9 mi

Pressure: 30.03 "Hg

Humidity: 84%

Dew point: 65 °F

Location of TulsaLocation

Historic Weather in Tulsa — Graph

°F

Tulsa temperature yesterday

Maximum temperature yesterday: 84 °F (at 4:53 PM)
Minimum temperature yesterday: 68 °F (at 1:53 AM)
Average temperature yesterday: 75 °F

Past Weeks' High & Low Weather Summary

 TemperatureHumidityPressure
High100 °F (Jul 26, 3:53 PM)100% (Jul 19, 5:53 AM)30.20 "Hg (Jul 19, 5:53 AM)
Low58 °F (Jul 19, 5:53 AM)34% (Jul 26, 3:53 PM)29.81 "Hg (Jul 26, 5:53 PM)
Average78 °F72%30.00 "Hg
* Reported Jul 17 11:53 PM — Aug 1 11:53 PM, Tulsa, Weather by CustomWeather, © 2014

Note: Actual official high and low records may vary slightly from our data, if they occured in-between our weather recording intervals... More about our weather records

Advertising

Tulsa weather history for previous 24 hours

 ConditionsComfort  
Time TempWeatherWind HumidityBarometerVisibility
11:53 PM
Aug 1
74 °FClear.No wind74%30.03 "Hg10 mi
10:53 PM75 °FPassing clouds.No wind69%30.02 "Hg10 mi
9:53 PM74 °FPassing clouds.5 mph74%30.01 "Hg10 mi
8:53 PM77 °FPassing clouds.5 mph64%30.00 "Hg10 mi
7:53 PM79 °FPassing clouds.5 mph60%30.00 "Hg10 mi
6:53 PM82 °FPassing clouds.7 mph53%30.00 "Hg10 mi
5:53 PM83 °FPassing clouds.7 mph53%30.01 "Hg10 mi
4:53 PM84 °FPassing clouds.3 mph49%30.01 "Hg10 mi
3:53 PM83 °FPassing clouds.6 mph50%30.02 "Hg10 mi
2:53 PM81 °FPassing clouds.8 mph56%30.03 "Hg10 mi
1:53 PM81 °FScattered clouds.5 mph56%30.05 "Hg10 mi
12:53 PM79 °FScattered clouds.3 mph58%30.06 "Hg9 mi
11:53 AM78 °FBroken clouds.6 mph60%30.07 "Hg10 mi
10:53 AM75 °FPartly sunny.6 mph69%30.07 "Hg10 mi
9:53 AM74 °FScattered clouds.5 mph74%30.06 "Hg10 mi
8:53 AM72 °FPartly sunny.No wind81%30.06 "Hg10 mi
7:53 AM70 °FOvercast.No wind84%30.06 "Hg10 mi
6:53 AM68 °FPassing clouds.No wind93%30.05 "Hg9 mi
5:53 AM69 °FOvercast.No wind90%30.03 "Hg10 mi
4:53 AM68 °FOvercast.No wind93%30.03 "Hg10 mi
3:53 AM68 °FPassing clouds.No wind93%30.04 "Hg10 mi
2:53 AM69 °FPassing clouds.No wind90%30.04 "Hg10 mi
1:53 AM68 °FPassing clouds.6 mph93%30.04 "Hg10 mi
Weather by CustomWeather, © 2014

See weather overviewHow to use our weather pages